Regional Weather Roundup
Issued by NWS

Home | Current Version | Previous Version | Text Only | Print | Product List | Glossary On
Versions: 1 2 3 4 5 6 7 8 9 10 11 12 13 14 15 16 17 18 19 20 21 22 23 24 25 26 27 28 29 30 31 32 33 34 35 36 37 38 39 40 41 42 43 44 45 46 47 48 49 50
000
ASUS43 KTOP 020608
RWRKS

WEATHER ROUNDUP FOR KANSAS
NATIONAL WEATHER SERVICE GOODLAND KS
100 AM CDT SAT AUG 02 2014

NOTE:  "FAIR" INDICATES FEW OR NO CLOUDS BELOW 12,000 FEET WITH NO
SIGNIFICANT WEATHER AND/OR OBSTRUCTIONS TO VISIBILITY.

KSZ001>006-013>018-027>032-041>047-020700-
NORTHWEST KANSAS

CITY           SKY/WX    TMP DP  RH WIND       PRES   REMARKS
GOODLAND       PTCLDY    65  55  70 S9        30.21R
6HR MIN TEMP:  65; 6HR MAX TEMP:  84;

HAYS           PTCLDY    64  52  63 CALM      30.13R
HILL CITY      CLEAR     63  54  72 CALM      30.15R
6HR MIN TEMP:  63; 6HR MAX TEMP:  90;

RUSSELL        CLEAR     63  55  75 CALM      30.11R
6HR MIN TEMP:  63; 6HR MAX TEMP:  88;

$$

KSZ061>065-074>080-084>089-020700-
SOUTHWEST KANSAS

CITY           SKY/WX    TMP DP  RH WIND       PRES   REMARKS
DODGE CITY     PTCLDY    67  59  75 CALM      30.15R
6HR MIN TEMP:  67; 6HR MAX TEMP:  87;

ELKHART          N/A     68  56  65 SE6         N/A
GARDEN CITY    MOCLDY    70  59  68 SE6       30.17R
6HR MIN TEMP:  67; 6HR MAX TEMP:  84;

GREAT BEND       N/A     64  55  72 NW3       30.11R
LIBERAL        MOCLDY    70  55  60 CALM      30.18S
PRATT          MOCLDY    68  54  60 N5        30.11S
$$

KSZ066>073-081>083-090>101-020700-
SOUTHEAST KANSAS

CITY           SKY/WX    TMP DP  RH WIND       PRES   REMARKS
CHANUTE        MOCLDY    67  64  90 E3        30.08S
6HR MIN TEMP:  65; 6HR MAX TEMP:  82;

COFFEYVILLE    CLEAR     66  64  93 CALM      30.08R
6HR MIN TEMP:  66; 6HR MAX TEMP:  82;

HUTCHINSON     PTCLDY    68  53  58 VRB3      30.08R
6HR MIN TEMP:  62; 6HR MAX TEMP:  88;

MEDICINE LODGE   N/A     74  65  73 S5        30.08R
NEWTON         CLEAR     66  59  77 S6        30.12R
PARSONS        PTCLDY    64  62  93 CALM      30.09S
6HR MIN TEMP:  64; 6HR MAX TEMP:  82;

WICHITA INTL   PTCLDY    69  64  84 S6        30.07S
6HR MIN TEMP:  68; 6HR MAX TEMP:  87;

WICHITA MCCONL PTCLDY    69  69 100 S7        30.08R
WINFIELD       CLEAR     70  66  87 SE5       30.09R
6HR MIN TEMP:  69; 6HR MAX TEMP:  82;

$$

KSZ007>012-019>026-033>040-048>060-102>105-020700-
NORTHEAST KANSAS

CITY           SKY/WX    TMP DP  RH WIND       PRES   REMARKS
CONCORDIA      CLEAR     67  63  87 NE5       30.09S
6HR MIN TEMP:  67; 6HR MAX TEMP:  83;

EMPORIA        CLEAR     69  63  81 S8        30.08S
6HR MIN TEMP:  69; 6HR MAX TEMP:  83;

LAWRENCE       CLEAR     68  62  81 E5        30.10R
6HR MIN TEMP:  65; 6HR MAX TEMP:  85;

MANHATTAN      CLEAR     73  64  73 E3        30.07R
6HR MIN TEMP:  73; 6HR MAX TEMP:  89;

MARYSVILLE     PTCLDY    68  63  83 E6        30.10S
OLATHE IND     CLEAR     69  62  78 E3        30.11R
6HR MIN TEMP:  69; 6HR MAX TEMP:  83;

OLATHE EXE     MOCLDY    71  62  73 E6        30.10R
6HR MIN TEMP:  71; 6HR MAX TEMP:  81;

SALINA         CLEAR     70  58  65 NW8       30.07R
6HR MIN TEMP:  70; 6HR MAX TEMP:  88;

TOPEKA BILLARD CLEAR     70  64  81 E6        30.09R
6HR MIN TEMP:  70; 6HR MAX TEMP:  86;

TOPEKA FORBES  CLEAR     69  63  81 E6        30.09R
6HR MIN TEMP:  69; 6HR MAX TEMP:  84;

$$



USA.gov is the U.S. government's official web portal to all federal, state and local government web resources and services.